Miscellaneous Local Product
Issued by NWS Hastings, NE

Home | Current Version | Previous Version | Graphics & Text | Print | Product List | Glossary On
Versions: 1 2 3 4 5 6 7 8 9 10 11 12 13 14 15 16 17 18 19 20 21 22 23 24 25 26 27 28 29 30 31 32 33 34 35 36 37 38 39 40 41 42 43 44 45 46 47 48 49 50
000
AXUS43 KGID 010402
MISGRI

GID CWA HOURLY WEATHER ROUNDUP
NATIONAL WEATHER SERVICE HASTINGS NE
1100 PM CDT TUE SEP 30 2014

NOTE: "FAIR" INDICATES FEW OR NO CLOUDS BELOW 12,000 FEET WITH NO
SIGNIFICANT WEATHER AND/OR OBSTRUCTIONS TO VISIBILITY.

...SOUTH CENTRAL NEBRASKA...

CITY           SKY/WX    TMP DP  RH WIND       PRES   REMARKS
GRAND ISLAND   CLOUDY    63  61  93 SE9       29.75S FOG
HASTINGS       FOG       62  60  93 SE12      29.76R VSB 1/2
KEARNEY        CLOUDY    61  59  94 SE10      29.75S
ORD            PTCLDY    61  58  90 SE6       29.72S
YORK           CLOUDY    63  63 100 SE10      29.75F FOG
AURORA         FOG       62  62 100 SE10      29.76R VSB 3/4
LEXINGTON      MOCLDY    56  54  91 E5        29.74S
HOLDREGE       PTCLDY    57  55  92 CALM      29.74S
HEBRON         CLOUDY    66  63  89 E9        29.73F

...NEBRASKA PANHANDLE...

CITY           SKY/WX    TMP DP  RH WIND       PRES   REMARKS
CHADRON        CLOUDY    55  50  83 W6        29.75R
ALLIANCE       CLOUDY    54  44  69 W10       29.77R
SCOTTSBLUFF    CLOUDY    61  43  51 W13       29.79R
SIDNEY         CLOUDY    60  43  53 W14       29.83S

...WESTERN AND NORTH CENTRAL NEBRASKA...

CITY           SKY/WX    TMP DP  RH WIND       PRES   REMARKS
VALENTINE      PTCLDY    51  45  79 S3        29.71R
AINSWORTH      MOCLDY    55  47  73 S7        29.72R
ONEILL         MOCLDY    64  62  92 SE8       29.73S
BROKEN BOW     CLOUDY    55  50  83 CALM      29.74R
IMPERIAL       CLOUDY    61  48  62 W3        29.76S
NORTH PLATTE   CLOUDY    60  50  69 SE5       29.74F
MCCOOK         CLOUDY    60  52  74 CALM      29.74R

...EASTERN NEBRASKA...

CITY           SKY/WX    TMP DP  RH WIND       PRES   REMARKS
NORFOLK        PTCLDY    61  59  93 SE7       29.76S
SO SIOUX CITY  CLEAR     63  61  93 SE8       29.77S
TEKAMAH        CLOUDY    63  61  93 SE6       29.79R FOG
COLUMBUS       PTCLDY    57  55  94 E3        29.77F
ALBION         CLOUDY    62  60  93 SE10      29.76R FOG
OMAHA EPPLEY   LGT RAIN  66  63  90 NW6       29.82R
OFFUTT AFB     LGT RAIN  66  66 100 E10       29.79S
MILLARD        RAIN      66  64  93 SE9       29.78F
LINCOLN        TSTM      65  63  93 SE10      29.76F
NEBRASKA CITY  TSTM      64  64 100 NE8       29.79S
BEATRICE       CLOUDY    64  63  94 E7        29.76S
FALLS CITY     LGT RAIN  66  65  96 NE3       29.75F

...NORTHERN KANSAS...

CITY           SKY/WX    TMP DP  RH WIND       PRES   REMARKS
GOODLAND       MOCLDY    56  51  84 CALM      29.79R
HILL CITY      CLEAR     64  62  93 E6        29.72F
NORTON         CLEAR     61  55  82 E7        29.72F
PHILLIPSBURG   CLOUDY    66  66 100 NE5       29.72S
SMITH CENTER   PTCLDY    64  63  94 E12       29.72S FOG
BELOIT         PTCLDY    64  64 100 E6        29.70S
HAYS           CLEAR     63  57  82 NE7       29.70S
RUSSELL        MOCLDY    65  62  90 S3        29.68F
CONCORDIA      CLOUDY    65  65 100 SE5       29.72S
SALINA         TSTM      69  65  86 NW6       29.73R FOG
TOPEKA         MOCLDY    75  62  64 S15       29.76R



USA.gov is the U.S. government's official web portal to all federal, state and local government web resources and services.